HUANJING 1B (HJ-1B)

Last updated on Tue Sep 22 2026 00:02:58 GMT+0000 (Coordinated Universal Time)

1 33321U 08041B 26264.59491120 .00000946 00000+0 12023-3 0 9995 2 33321 97.6627 249.6443 0034847 225.5230 134.3134 14.83470237972701
UTC large
Height (km)
Speed (km/s)
/
Latitude / Longitude
Inclination (degrees)
Orbital Period (minutes)
Azimuth
Elevation
Range (km)
Doppler Factor

Next 0 passes for location: London (51.5072 / 0.1276)

No passes found over London.
HUANJING 1B (HJ-1B)